Kaltag, AK

9:31 PM AKDT on April 29, 2017 (GMT -0800)
Kaltag

Weather History for PAKV - March, 2013

Change the Weather History Date:

Friday, March 22, 2013

  Actual Average (PAGA) Record (PAGA)
Temperature  
Mean Temperature -8 °F -  
Max Temperature 1 °F 19 °F 41 °F (1999)
Min Temperature -17 °F -1 °F -38 °F (1972)
Degree Days  
Heating Degree Days 73    
Moisture  
Dew Point -16 °F    
Average Humidity 63    
Maximum Humidity 84    
Minimum Humidity 35    
Precipitation  
Precipitation 0.00 in - - ()
Sea Level Pressure  
Sea Level Pressure 29.95 in    
Wind  
Wind Speed 4 mph (West)    
Max Wind Speed 12 mph    
Max Gust Speed 16 mph    
Visibility 9 miles    
Events Snow    
Averages and records for this station are not official NWS values.
T = Trace of Precipitation, MM = Missing Value Source: NWS Daily Summary

Daily Weather History Graph

Daily Weather History Graph

Search for Another Location

Airport or City:

Trip Planner

Search our weather history database for the weather conditions in past years. The results will help you decide how hot, cold, wet, or windy it might be!

Date:

Astronomy

Mar. 22, 2013 Rise Set
Actual Time 8:26 AM AKDT 8:58 PM AKDT
Civil Twilight 7:38 AM AKDT 9:46 PM AKDT
Nautical Twilight 6:38 AM AKDT 10:46 PM AKDT
Astronomical Twilight 5:29 AM AKDT 11:57 PM AKDT
Moon 3:13 PM AKDT (3/22) 7:02 AM AKDT (3/22)
Length of Visible Light 14h 08m
Length of Day
12h 31m
Waxing Gibbous, 78% of the Moon is Illuminated
Mar 22
Waxing Gibbous
Mar 27
Full
Apr 2
Last Quarter
Apr 10
New
Apr 18
First Quarter

Hourly Weather History & Observations

Time (AKDT) Temp. Windchill Dew Point Humidity Pressure Visibility Wind Dir Wind Speed Gust Speed Precip Events Conditions
12:53 AM 1.9 °F -9.2 °F -5.1 °F 72% 29.98 in 10.0 mi NE 5.8 mph - N/A   Mostly Cloudy
1:53 AM 1.9 °F -7.6 °F -5.1 °F 72% 29.98 in 2.5 mi NE 4.6 mph - 0.00 in Snow Light Snow
2:06 AM 1.4 °F -9.9 °F -4.0 °F 78% 29.95 in 4.0 mi ENE 5.8 mph - 0.00 in Snow Light Snow
2:53 AM 1.0 °F - -5.1 °F 75% 29.97 in 5.0 mi Calm Calm - 0.00 in   Haze
3:53 AM -2.9 °F - -9.0 °F 75% 29.96 in 10.0 mi Calm Calm - N/A   Overcast
4:53 AM -7.1 °F - -11.9 °F 79% 29.94 in 10.0 mi Calm Calm - N/A   Partly Cloudy
5:53 AM -9.9 °F - -15.0 °F 78% 29.93 in 10.0 mi Calm Calm - N/A   Clear
6:53 AM -11.0 °F -22.8 °F -17.0 °F 75% 29.93 in 10.0 mi SSW 4.6 mph - N/A   Mostly Cloudy
7:53 AM -15.0 °F -25.0 °F -20.0 °F 78% 29.92 in 10.0 mi WSW 3.5 mph - N/A   Scattered Clouds
8:05 AM -14.8 °F - -18.4 °F 84% 29.90 in 10.0 mi Calm Calm - N/A   Mostly Cloudy
8:53 AM -17.0 °F - -22.0 °F 78% 29.91 in 10.0 mi Calm Calm - N/A   Scattered Clouds
9:53 AM -11.9 °F -21.5 °F -18.0 °F 74% 29.90 in 9.0 mi SW 3.5 mph - N/A   Scattered Clouds
10:15 AM -9.4 °F -20.9 °F -14.8 °F 77% 29.88 in 9.0 mi SW 4.6 mph - N/A   Mostly Cloudy
10:53 AM -8.0 °F - -13.0 °F 79% 29.91 in 9.0 mi Calm Calm - N/A   Overcast
11:17 AM -9.4 °F - -16.6 °F 71% 29.89 in 5.0 mi Calm Calm - N/A   Haze
11:53 AM -2.9 °F - -9.9 °F 72% 29.91 in 10.0 mi Calm Calm - N/A   Clear
12:53 PM -0.0 °F - -15.0 °F 49% 29.92 in 10.0 mi Calm Calm - N/A   Clear
1:53 PM -0.0 °F -17.1 °F -22.0 °F 35% 29.93 in 10.0 mi NNW 11.5 mph 16.1 mph N/A   Clear
2:53 PM -0.0 °F -16.3 °F -20.9 °F 37% 29.94 in 7.0 mi NW 10.4 mph - N/A   Clear
3:53 PM -0.0 °F -11.6 °F -20.9 °F 37% 29.95 in 10.0 mi Variable 5.8 mph - N/A   Clear
4:53 PM -0.0 °F -14.2 °F -20.0 °F 39% 29.96 in 10.0 mi WNW 8.1 mph - N/A   Clear
5:53 PM -0.0 °F -16.3 °F -18.0 °F 43% 29.96 in 10.0 mi West 10.4 mph - N/A   Clear
6:53 PM -0.9 °F -16.4 °F -18.0 °F 44% 29.98 in 10.0 mi West 9.2 mph - N/A   Clear
7:53 PM -2.9 °F -15.0 °F -20.0 °F 44% 29.99 in 10.0 mi West 5.8 mph - N/A   Partly Cloudy
8:53 PM -6.0 °F -21.5 °F -20.9 °F 49% 29.99 in 10.0 mi WSW 8.1 mph - N/A   Clear
9:53 PM -7.1 °F -15.9 °F -20.9 °F 51% 30.00 in 10.0 mi SW 3.5 mph - N/A   Mostly Cloudy
10:53 PM -9.0 °F - -22.0 °F 53% 30.00 in 10.0 mi Calm Calm - N/A   Clear
11:53 PM -15.0 °F - -24.0 °F 64% 30.01 in 10.0 mi Calm Calm - N/A   Mostly Cloudy